Starlink 31361

operational
NORAD ID: 58974 Int'l Des: 2024-031 Owner: SPXS Country: US Constellation: starlink
LEOCIRCULAR

Starlink 31361について

説明を読み込み中...

リアルタイム位置

3D地球を読み込み中...

次回通過

高度履歴

Altitude vs Time

uPlot chart will show altitude changes over time

軌道要素

1 58974U 24031K 25303.97415607 -.00001242 00000-0 -29832-4 0 9994
2 58974 53.1590 179.1746 0000952 89.9050 270.2060 15.30197566 96678
Epoch: Oct 30, 2025 • Age: 44 hours

現在のステータス

高度 483.2 km
速度 7.62 km/s
衛星直下点 -25.79°S, 178.65°W
打ち上げ日 Feb 15, 2024
運用期間 1.7 years
タイプ internet

技術仕様

分類 Payload
質量 730.00 kg
乾燥質量 700.00 kg
総質量 730.00 kg
長さ 0.30 m
直径 4.10 m
スパン 29.00 m
形状 Box + pan
製造者 SPXS
バスタイプ Starlink V2M
フェーズステータス In Orbit
所有者/国 SPXS/US

大規模コンステレーション

Loading constellations...